Theta_e
310 314 316 317 317 320 322 322 322 322 321 319 320 320 321 322 322 324 325 327 330 332 331 330 330 328 326 327 326 327 325 325 324 324 324 323 324 321 320 321 321 319 319 319
310 316 317 318 319 321 322 322 323 321 320 319 319 320 320 320 320 322 324 326 328 330 332 331 331 329 326 326 325 326 326 326 324 323 324 324 322 322 322 322 321 316 319 319
316 314 318 318 320 321 323 323 323 322 321 320 319 320 320 320 320 321 322 323 325 328 332 332 332 330 328 326 325 326 325 324 324 325 325 324 323 322 322 323 322 316 316 318
317 318 316 319 320 321 323 321 321 321 321 322 321 322 321 321 321 322 323 324 324 326 329 332 332 331 330 326 325 324 325 324 324 324 324 323 323 323 322 322 322 321 317 317
316 317 318 317 318 319 320 320 320 321 321 322 322 321 321 321 321 321 323 323 323 326 328 332 332 331 330 327 325 325 324 325 324 325 324 323 323 322 323 322 321 320 319 320
315 315 317 317 316 316 318 319 319 320 321 324 323 324 323 322 323 324 323 322 322 325 328 331 331 331 330 328 325 325 324 325 325 324 325 325 325 323 323 322 321 319 318 318
312 314 315 316 316 314 317 320 323 324 325 326 323 324 323 322 323 323 323 323 322 324 327 330 332 332 330 329 326 325 325 325 324 324 325 325 325 324 322 323 321 320 318 318
310 313 313 314 316 316 318 320 324 328 330 328 325 324 322 322 321 323 323 323 323 324 327 328 331 332 330 329 327 325 324 325 325 324 324 324 324 324 324 323 322 322 320 319
313 315 315 315 316 316 318 319 318 322 325 328 327 324 324 323 323 323 323 324 323 324 325 328 329 331 331 330 329 326 325 325 325 325 325 324 324 324 323 323 323 322 321 321
314 314 313 315 316 316 317 319 320 322 326 328 325 325 327 324 323 322 323 324 324 324 325 326 329 331 330 330 329 328 325 324 325 325 325 325 325 325 325 324 324 323 323 322
312 316 317 315 317 318 317 317 320 322 322 327 329 327 324 324 323 322 324 323 324 324 325 326 329 329 330 330 330 329 327 325 324 325 325 325 325 324 325 325 325 324 323 323
314 320 319 316 315 316 317 317 320 325 325 325 325 327 322 323 323 322 323 322 323 324 324 324 326 329 330 330 330 329 328 327 325 325 325 325 325 324 324 325 326 325 324 324
313 318 320 320 318 317 318 319 319 321 323 326 334 326 322 322 322 320 321 321 321 323 323 323 325 328 330 329 329 329 329 328 327 325 325 326 326 325 324 325 325 325 326 324
312 319 319 317 319 319 318 319 321 321 324 323 323 323 322 322 321 320 320 320 321 321 321 322 323 324 328 329 329 329 329 329 328 326 325 325 326 326 325 324 324 324 324 325
314 321 320 320 319 316 319 320 320 321 321 323 323 323 321 321 321 320 320 320 320 320 321 321 323 323 324 328 329 329 329 329 329 328 327 326 326 326 325 325 324 324 324 324
312 313 313 318 316 315 315 317 317 317 318 318 318 319 320 319 319 317 317 319 321 321 321 321 321 322 323 323 327 328 329 329 329 329 329 327 327 326 326 325 325 324 324 323
311 313 312 316 312 315 317 315 315 316 317 317 319 321 318 318 317 318 319 320 321 321 321 321 321 321 322 322 322 324 327 328 329 329 329 328 328 327 327 326 325 324 324 323
311 313 314 316 316 317 313 313 313 315 316 316 316 316 317 317 317 318 319 321 321 320 321 321 321 322 321 320 319 320 322 326 328 329 328 328 328 328 327 327 326 325 324 324
310 312 315 316 315 313 312 311 311 312 313 315 315 316 317 316 317 318 320 319 319 319 320 320 319 321 322 321 319 318 319 322 326 329 328 327 327 327 327 327 327 326 325 325
310 311 314 314 314 312 311 314 315 314 315 315 315 315 315 315 318 318 318 318 318 318 319 319 320 322 322 323 323 323 320 320 323 327 328 327 327 327 326 326 327 326 325 325
313 314 314 314 314 313 313 313 314 316 317 314 314 314 315 316 316 316 315 317 317 317 317 318 319 317 314 312 316 322 323 322 321 322 325 327 326 327 326 326 326 326 321 319
314 314 314 314 316 315 311 313 315 318 316 315 315 315 315 315 315 316 316 317 317 317 316 314 314 309 305 302 305 315 321 319 323 323 324 326 326 325 326 325 319 313 314 308
314 312 313 311 312 313 315 315 314 314 314 314 314 313 313 314 314 316 317 317 315 313 311 310 307 302 299 297 298 300 302 306 311 317 312 309 311 310 311 309 309 305 301 297
311 312 315 315 314 314 314 311 314 313 313 313 312 311 311 311 312 313 313 315 311 308 306 304 302 297 295 293 293 294 297 299 300 299 298 298 298 298 299 298 297 297 295 293
309 310 310 310 310 310 310 312 312 311 311 311 309 309 308 308 308 308 310 307 305 303 299 297 296 292 291 291 290 291 293 296 294 293 292 291 290 290 290 290 291 292 292 291
309 309 310 310 313 313 312 310 309 309 308 307 306 305 304 304 303 304 304 300 298 297 294 292 290 290 289 289 287 288 290 291 294 290 289 289 288 287 286 285 284 285 287 287
Wind_Speed
19 16 23 26 28 25 22 21 16 11 8 9 15 17 17 15 13 12 12 12 13 14 13 16 15 13 12 13 13 14 16 21 24 26 26 25 25 30 30 32 31 29 24 26
18 25 25 24 24 23 24 23 21 17 10 6 15 18 16 17 16 18 13 15 14 14 14 15 18 17 16 15 16 16 17 19 24 28 26 27 29 30 29 31 34 35 23 24
21 26 26 24 22 23 21 23 20 18 16 11 15 19 20 20 18 17 18 14 13 16 17 17 17 20 18 18 19 19 18 22 22 24 22 20 22 24 25 27 28 34 30 25
12 27 27 23 27 20 22 20 20 18 14 15 14 15 15 13 16 16 15 16 14 15 17 17 18 20 21 20 19 20 21 22 23 23 24 28 25 17 28 30 28 31 35 26
13 20 23 24 19 23 22 16 19 16 15 18 21 10 13 19 16 13 13 14 15 15 15 18 19 22 22 22 22 22 23 25 26 25 26 29 25 29 22 30 34 30 33 28
13 21 16 17 20 18 21 17 14 13 14 16 20 16 12 14 14 12 6 8 13 16 15 17 21 23 23 23 23 23 25 26 26 27 28 26 29 29 23 28 31 36 29 32
15 23 26 18 12 18 23 17 10 11 13 14 13 13 15 6 3 3 5 8 9 10 13 16 19 19 25 26 25 25 27 28 30 28 29 28 28 28 30 31 32 32 37 35
17 18 27 18 19 13 17 17 9 13 10 14 19 8 12 16 11 5 4 5 8 7 10 15 19 20 26 28 29 27 27 28 30 31 30 29 28 28 29 31 32 34 38 43
12 22 11 20 20 15 13 19 21 19 11 6 8 11 3 7 9 8 5 7 8 8 9 14 17 21 27 29 31 30 29 28 29 31 31 31 32 31 30 30 33 35 38 37
10 10 15 13 17 22 22 15 15 12 11 13 12 14 6 10 7 6 10 8 9 10 2 6 14 17 26 29 29 30 30 29 29 30 31 31 32 33 31 30 33 33 35 37
14 11 2 13 14 20 15 17 15 16 13 5 7 5 3 9 5 2 5 7 1 5 2 1 9 16 23 26 29 30 30 31 31 31 30 30 31 31 31 34 33 34 34 37
10 5 8 15 18 23 18 19 18 9 13 11 12 9 3 6 6 5 7 8 9 4 6 3 4 11 19 25 28 30 31 32 33 31 32 32 30 32 33 34 34 35 34 34
8 8 8 11 8 11 14 18 21 18 15 13 3 2 4 5 4 4 7 9 13 16 16 7 4 7 12 21 26 30 31 33 32 32 33 32 34 34 36 36 34 34 34 35
6 9 12 8 6 3 12 8 13 10 9 11 13 14 13 8 9 10 10 11 11 13 14 15 11 6 9 17 24 28 29 31 31 33 33 34 35 37 36 34 35 35 36 35
3 6 11 7 8 3 6 7 10 13 14 12 14 13 10 10 10 11 12 13 12 13 14 15 14 10 7 14 20 25 28 30 32 33 33 37 35 34 34 33 35 36 37 37
3 9 7 13 6 7 10 12 11 12 11 12 12 15 13 6 7 7 11 14 16 17 17 16 15 18 11 10 16 21 25 29 31 33 35 34 33 34 35 34 34 34 35 37
6 7 9 11 9 7 10 15 16 14 15 13 13 6 8 7 8 9 11 10 12 13 14 15 17 17 16 14 12 17 23 24 28 31 32 33 33 34 35 34 34 35 36 34
9 10 7 7 1 10 6 1 4 10 13 13 11 5 7 8 10 12 11 7 12 14 16 16 15 16 21 20 20 18 19 23 27 29 31 32 32 33 33 33 35 34 34 35
15 12 5 5 9 13 15 11 10 9 8 3 0 3 7 9 11 12 8 13 14 13 14 15 23 25 25 24 22 19 19 22 26 27 30 32 32 31 31 32 33 31 30 30
16 15 9 6 11 10 6 4 4 3 7 8 5 5 7 10 7 7 16 15 16 16 16 17 22 23 26 28 27 24 21 22 24 25 29 28 29 30 30 28 27 27 28 26
11 10 14 12 9 7 3 5 2 11 5 3 6 7 9 9 10 15 15 13 14 16 18 20 21 20 22 26 27 26 22 20 20 20 21 25 27 27 28 26 26 26 20 22
11 9 7 9 6 15 8 5 7 8 4 8 8 10 11 12 14 14 14 12 14 15 16 20 18 20 23 26 28 25 20 21 14 10 6 8 12 16 21 17 14 18 24 24
7 8 8 10 8 4 2 7 7 8 8 10 11 12 11 11 13 16 13 12 13 15 16 18 17 19 23 26 25 24 26 23 18 7 8 7 8 9 10 14 21 20 17 18
10 5 4 1 5 1 10 2 12 10 10 10 12 12 13 13 13 14 13 10 11 13 16 17 17 17 22 27 25 24 25 21 19 17 13 12 16 18 17 14 12 14 16 17
8 6 12 10 11 10 1 12 12 11 12 13 13 12 12 13 13 12 10 11 11 13 16 16 15 15 21 25 24 25 24 17 21 22 22 19 20 19 30 26 18 15 12 12
8 8 6 4 10 7 9 12 13 11 13 13 14 13 12 12 13 14 9 12 13 13 15 14 15 18 21 21 25 27 21 16 15 22 22 21 19 18 24 27 31 33 27 22
Wind_Direction
215 227 228 229 225 238 254 265 253 261 256 214 241 253 256 246 254 217 226 218 209 207 197 186 193 189 184 179 186 181 177 189 180 170 161 165 162 166 176 189 189 181 184 182
263 230 233 236 239 231 244 250 257 264 266 222 259 260 252 248 249 262 239 215 212 204 198 186 188 189 192 185 189 181 181 179 179 178 178 174 180 180 180 192 198 194 178 181
241 242 232 241 236 239 231 241 251 255 271 205 258 268 260 256 247 252 252 252 235 202 198 191 192 192 191 192 186 191 185 186 183 183 176 178 174 182 186 191 195 198 193 182
261 271 253 223 237 230 241 233 250 261 258 259 257 273 265 281 221 228 224 234 229 206 198 195 195 193 193 192 188 188 187 184 184 183 174 176 183 173 198 193 195 202 204 199
212 262 251 244 233 236 247 256 262 236 246 260 256 257 266 255 244 237 242 240 203 214 198 195 195 196 193 185 189 189 185 189 192 188 182 180 179 190 179 189 197 202 207 204
250 249 254 265 242 238 254 240 249 242 240 244 245 249 261 247 208 217 229 221 206 191 197 194 190 196 191 186 185 191 185 193 192 195 195 195 187 184 174 179 185 199 202 208
240 261 264 266 277 229 229 210 211 217 223 237 236 230 235 250 105 245 262 249 209 171 190 195 188 194 191 188 187 191 191 193 189 195 201 202 203 194 188 189 184 183 200 205
222 233 239 245 236 230 226 220 211 215 223 230 207 231 243 225 254 196 239 265 206 153 198 205 197 195 194 190 190 193 197 199 192 195 200 202 206 207 204 196 197 196 198 202
235 232 235 229 238 232 231 232 246 273 259 255 194 225 231 159 213 223 227 190 184 219 183 201 205 194 198 194 194 194 199 202 199 196 198 203 205 205 203 204 200 204 207 205
284 267 229 217 213 226 227 250 233 232 249 244 260 253 197 178 184 231 247 206 222 240 193 245 204 196 200 199 198 198 202 203 202 202 202 202 205 207 206 206 208 207 205 205
224 260 236 174 208 227 207 230 251 243 224 233 245 257 322 171 171 219 51 17 38 33 17 238 208 203 203 204 201 201 204 204 205 204 206 208 207 209 209 208 208 206 206 204
209 298 251 215 216 221 237 225 221 245 230 235 245 255 277 111 43 337 330 322 315 307 305 96 213 219 203 206 205 203 206 209 207 204 204 208 210 210 212 215 212 208 209 208
326 229 246 208 198 229 229 218 221 239 258 224 229 213 220 215 284 344 331 341 328 332 325 351 176 220 211 209 210 210 208 213 211 207 207 209 209 209 212 213 214 214 211 210
283 272 259 248 336 262 224 200 235 236 242 247 254 269 288 272 281 304 317 318 321 307 299 309 309 216 218 214 214 214 213 212 213 210 211 214 213 213 213 211 212 213 214 215
246 291 311 238 271 317 308 250 243 243 243 253 242 241 264 280 283 293 314 307 298 299 312 312 317 302 233 212 217 219 220 214 214 215 214 217 216 216 216 216 213 213 214 215
269 260 246 277 262 274 270 261 250 263 270 270 271 265 269 302 20 331 318 331 330 321 324 324 317 313 321 270 217 222 223 218 211 216 219 219 218 217 218 216 215 215 216 217
274 259 246 265 259 290 272 250 251 250 239 244 247 285 327 272 315 316 316 340 343 329 326 325 316 312 311 319 293 250 230 225 217 217 222 220 218 218 218 216 215 217 216 216
254 246 247 269 244 243 233 346 300 244 254 254 265 325 346 312 305 301 300 356 346 339 332 332 332 319 302 302 300 292 263 232 218 218 220 219 217 218 217 215 215 215 216 215
218 245 233 238 236 269 291 276 251 241 248 94 316 25 16 343 306 280 42 9 340 331 330 333 336 334 320 308 299 292 282 249 228 219 221 220 216 215 215 215 214 212 212 213
205 220 238 214 246 250 251 72 342 269 188 90 58 29 357 343 317 327 354 343 333 334 334 347 340 343 346 342 331 310 287 267 248 227 224 225 222 215 214 215 217 211 209 209
186 200 221 225 244 252 312 139 130 224 97 48 8 358 352 332 328 318 314 315 330 343 349 356 1 3 354 342 329 308 289 274 274 260 240 224 224 218 215 203 210 206 190 176
182 186 201 229 240 241 276 272 251 48 11 5 6 2 343 333 319 319 313 326 348 349 359 3 5 6 1 359 350 334 351 337 331 349 329 222 224 218 216 194 158 164 170 164
208 202 197 198 218 174 190 84 53 33 1 357 351 351 352 339 336 324 336 344 351 351 359 4 11 13 7 2 5 349 345 345 343 13 44 65 95 98 114 157 163 148 145 136
244 212 245 53 250 56 239 153 57 22 3 6 4 355 353 349 338 339 335 356 344 356 0 2 8 28 10 357 3 353 351 10 27 29 41 68 88 96 94 87 73 110 133 137
253 254 244 263 270 280 296 55 31 2 355 1 359 358 355 350 344 348 347 354 352 358 2 10 10 12 34 359 359 3 0 25 42 40 33 40 63 72 84 72 74 82 93 129
254 269 256 268 40 351 30 14 20 1 0 351 350 350 354 357 346 347 7 1 359 8 5 14 17 34 27 23 2 10 15 21 71 62 46 37 47 62 74 82 74 77 86 101